User: anonymous   Login
Location: Newark
(27.9675°N, 86.8869°E)
Time: 20:26:48
(UTC+00:00)
Language:

Vanguard 3 - Orbit

View from above orbital plane
View from above orbital plane
View from above satellite
View from above satellite

Ground track
Ground track

The orbit data is extracted from the following two-line orbital elements,

1    20U 59007A   19294.48115260  .00000054  00000-0  30127-4 0  9991
2    20  33.3439 316.9442 1666261  73.7769 303.9143 11.55689067202875
Epoch (UTC): 21 October 2019 11:32:51
Eccentricity: 0.1666261
inclination: 33.3439°
perigee height: 508 km
apogee height: 3262 km
right ascension of ascending node: 316.9442°
argument of perigee: 73.7769°
revolutions per day: 11.55689067
mean anomaly at epoch: 303.9143°
orbit number at epoch: 20287

The dashed part of the orbit path shows where the satellite is in the earth's shadow,  

DLR